Norfolk International Airport Airport (ORF)

 

Airport Diagram
Current Weather/Forecast (MVFR Conditions)
METAR KORF 220651Z 00000KT 10SM OVC014 16/14 A3006 RMK AO2 SLP180 T01610139
TAF KORF 220545Z 2206/2306 VRB05KT P6SM OVC012 FM221700 16011G20KT P6SM VCSH SCT007 BKN015 FM222200 18011KT 6SM -SHRA BR OVC015 FM230100 20010KT P6SM OVC007 FM230400 27010KT P6SM BKN010

All Charts
General
Chart Name Download
AIRPORT DIAGRAM
TAKEOFF MINIMUMS
ALTERNATE MINIMUMS

Departures
Chart Name Download
KISRR THREE

Arrivals
Chart Name Download
DRONE TWO
DRONE TWO, CONT.1
TERKS TWO

Approaches
Chart Name Download
ILS OR LOC RWY 05
ILS OR LOC RWY 23
RNAV (RNP) Y RWY 05
RNAV (RNP) Y RWY 23
RNAV (GPS) RWY 14
RNAV (GPS) RWY 32
RNAV (GPS) Z RWY 05
RNAV (GPS) Z RWY 23
VOR/DME RWY 32
VOR RWY 14
RIVER VISUAL RWY 05


Inbound Traffic (Arrivals)

No inbound traffic.


Outbound Traffic (Departures)

No outbound traffic.